Notices

What's New in latest Release from April 7th, 2021:

- Updated Glossary, including Speed of Maximum Gust, and Total Hourly Precipitation

- Updated national and regional climate services offices contacts and prices information

- Addition of station inventory lists for 1981-2010, 1971-2000, and 1961-1990 Normals.

If you haven't already, please take our survey and provide feedback about our website: https://eccc.sondage-survey.ca/f/LanguageSelection.aspx?s=442ca660-fcf1-47c0-95a9-59707d6fd709

Hourly Data Report for August 18, 2003

TORONTO CITY
ONTARIO

43°40'00.000" N
79°24'00.000" W
112.50 m
6158355
71508
XTO

Download Data

Hourly Data (August 2003)
Hourly Data Report for August 18, 2003
TIME
LST
Temp Definition
°C
Dew Point Definition
°C
Rel Hum Definition
%
Precip. Amount Definition
mm

Wind Dir Definition
10's deg

Wind Spd Definition
km/h
Visibility Definition
km
Stn Press Definition
kPa
Hmdx Definition


Wind Chill Definition


Weather Definition


00:00 18.9 12.4 66   LegendMM LegendMM LegendMM 100.37     LegendNANA
01:00 18.9 12.9 68   LegendMM LegendMM LegendMM 100.38     LegendNANA
02:00 18.3 13.2 72   LegendMM LegendMM LegendMM 100.38     LegendNANA
03:00 17.9 13.3 74   LegendMM LegendMM LegendMM 100.41     LegendNANA
04:00 18.1 13.5 74   LegendMM LegendMM LegendMM 100.44     LegendNANA
05:00 17.5 13.3 76   LegendMM LegendMM LegendMM 100.46     LegendNANA
06:00 17.5 13.3 76   LegendMM LegendMM LegendMM 100.50     LegendNANA
07:00 18.7 13.2 70   LegendMM LegendMM LegendMM 100.57     LegendNANA
08:00 21.4 13.7 61   LegendMM LegendMM LegendMM 100.61 25   LegendNANA
09:00 23.6 12.9 51   LegendMM LegendMM LegendMM 100.61 26   LegendNANA
10:00 25.4 15.1 53   LegendMM LegendMM LegendMM 100.64 29   LegendNANA
11:00 25.7 12.8 45   LegendMM LegendMM LegendMM 100.63 28   LegendNANA
12:00 26.8 13.9 45   LegendMM LegendMM LegendMM 100.61 30   LegendNANA
13:00 26.4 12.7 43   LegendMM LegendMM LegendMM 100.61 29   LegendNANA
14:00 26.5 12.1 41   LegendMM LegendMM LegendMM 100.60 29   LegendNANA
15:00 26.4 12.8 43   LegendMM LegendMM LegendMM 100.59 29   LegendNANA
16:00 25.6 13.8 48   LegendMM LegendMM LegendMM 100.57 29   LegendNANA
17:00 24.2 12.8 49   LegendMM LegendMM LegendMM 100.57 27   LegendNANA
18:00 24.0 12.6 49   LegendMM LegendMM LegendMM 100.57 27   LegendNANA
19:00 22.8 12.5 52   LegendMM LegendMM LegendMM 100.55 25   LegendNANA
20:00 21.8 12.7 56   LegendMM LegendMM LegendMM 100.56     LegendNANA
21:00 21.8 14.3 62   LegendMM LegendMM LegendMM 100.59 25   LegendNANA
22:00 21.8 16.1 70   LegendMM LegendMM LegendMM 100.62 26   LegendNANA
23:00 22.0 18.4 80   LegendMM LegendMM LegendMM 100.61 28   LegendNANA

Notes on Data Quality.

Legend

  • E = Estimated
  • M = Missing
  • NA = Not Available*
  • [empty] = Indicates an unobserved value
Date modified: